星链-11081 (STARLINK-11081)

导读 | 星芒AI

STARLINK-11081 是 SpaceX 星链计划中的一颗低轨通信卫星,属于第 11 批部署的星链卫星群。该卫星于 2021 年 10 月发射,旨在为全球提供高速互联网服务。它运行在约 550 公里的轨道高度,采用先进的相控阵天线和激光通信技术,以提升连接速度和网络稳定性。作为星链系统的重要组成部分,STARLINK-11081 有助于扩大覆盖范围,特别是在偏远和网络基础设施薄弱的地区。

基本信息
目录编号:
60405
目录名称:
STARLINK-11081
国际标识:
2024-141H
轨道中心:
EARTH
卫星名称:
星链-11081 (STARLINK-11081)
卫星全名:
星链-11081 (STARLINK-11081)
卫星状态:
在轨 (已飞行490 天)
发射日期:
2024-08-10 UTC
国别 :
美国 (US)
星等 :
--
轨道信息
数据来源 国际轨道数据 AOE轨道数据
星历时间 2025-12-13T01:50:01+0800
16小时前
查看轨道信息
2025-12-12T15:00:00+0800
1天前
查看轨道信息
半长轴 6737.858km 6737.833km
偏心率 0.0001234 0.0001277
轨道倾角 53.158° 53.159°
近地点辐角 91.958° 79.091°
升交点赤经 155.120° 157.341°
平近点角 268.158° 248.634°
近地点 358.891km 358.837km
远地点 360.555km 360.559km
周期 91.737分钟 91.736分钟
每日圈数 15.697121 15.697208
详细信息
卫星平台:
Starlink v2.0 mini
运营商:
太空探索技术公司
运营商所在国:
美国
制造商(研发单位):
太空探索技术公司
制造商所在国:
美国
使用方式:
暂无
卫星简介
星链(Starlink)计划是由太空探索技术公司(SpaceX)提出的一个巨型低轨卫星互联网星座项目,计划在2019年至2024年间在太空搭建由约1.2万颗卫星组成的“星链”网络,其中1584颗将部署在地球上空550千米处的近地轨道,并从2020年开始工作。该卫星仍在工作。
2D轨道图
3D轨道图
轨道高度分析图
轨道倾角分析图
轨道综合分析图
查看轨道综合分析图